When you browse on this site, cookies collect data to enhance your experience and personalize the content and advertising you see.
Visit our Privacy Policy to learn more. By continuing to use the site, you agree to this use of cookies and data.
  • In Schweiz
  • Länderverzeichnis
  • Für 7 Tage
  • Wassertemperatur
  • Satellitenkarten
  • Wetterkarte
  • Widgets
  • user-avatar
    Anmelden

    Stündliche Wetter Pacynichi

    Heute, 24 Januar, Donnerstag

    Zeit Temperatur Niederschläge Wind Luftdruck Luftfeuchtigkeit
    00:00 -12°C° 0 mm 3 m/S 744 mmHg 91%
    01:00 -12°C° 0 mm 3 m/S 744 mmHg 91%
    02:00 -12°C° 0 mm 3 m/S 744 mmHg 90%
    03:00 -12°C° 0 mm 3 m/S 745 mmHg 91%
    04:00 -12°C° 0 mm 3 m/S 745 mmHg 91%
    05:00 -12°C° 0 mm 3 m/S 745 mmHg 92%
    06:00 -13°C° 0 mm 3 m/S 745 mmHg 92%
    07:00 -13°C° 0 mm 3 m/S 745 mmHg 92%
    08:00 -13°C° 0 mm 3 m/S 745 mmHg 93%
    09:00 -12°C° 0 mm 3 m/S 746 mmHg 92%
    10:00 -12°C° 0 mm 3 m/S 746 mmHg 91%
    11:00 -12°C° 0 mm 3 m/S 747 mmHg 90%
    12:00 -10°C° 0 mm 3 m/S 747 mmHg 88%
    13:00 -10°C° 0 mm 3 m/S 747 mmHg 87%
    14:00 -10°C° 0 mm 4 m/S 747 mmHg 86%
    15:00 -10°C° 0 mm 4 m/S 747 mmHg 87%
    16:00 -11°C° 0 mm 4 m/S 747 mmHg 88%
    17:00 -11°C° 0 mm 4 m/S 747 mmHg 89%
    18:00 -11°C° 0 mm 4 m/S 747 mmHg 89%
    19:00 -12°C° 0 mm 4 m/S 747 mmHg 90%
    20:00 -12°C° 0 mm 4 m/S 748 mmHg 90%
    21:00 -12°C° 0 mm 4 m/S 748 mmHg 91%
    22:00 -12°C° 0 mm 4 m/S 748 mmHg 91%
    23:00 -14°C° 0 mm 4 m/S 748 mmHg 91%

    Morgen, 25 Januar, Freitag

    Zeit Temperatur Niederschläge Wind Luftdruck Luftfeuchtigkeit
    00:00 -14°C° 0 mm 4 m/S 748 mmHg 91%
    01:00 -14°C° 0 mm 4 m/S 748 mmHg 91%
    02:00 -14°C° 0 mm 4 m/S 748 mmHg 91%
    03:00 -14°C° 0 mm 4 m/S 748 mmHg 91%
    04:00 -14°C° 0 mm 5 m/S 748 mmHg 90%
    05:00 -14°C° 0 mm 5 m/S 747 mmHg 90%
    06:00 -14°C° 0 mm 5 m/S 747 mmHg 90%
    07:00 -14°C° 0 mm 5 m/S 747 mmHg 89%
    08:00 -14°C° 0 mm 5 m/S 747 mmHg 89%
    09:00 -14°C° 0.1 mm 5 m/S 747 mmHg 89%
    10:00 -13°C° 0.1 mm 5 m/S 747 mmHg 89%
    11:00 -13°C° 0.1 mm 5 m/S 747 mmHg 89%
    12:00 -13°C° 0.3 mm 5 m/S 747 mmHg 89%
    13:00 -13°C° 0.3 mm 5 m/S 747 mmHg 89%
    14:00 -12°C° 0.3 mm 5 m/S 747 mmHg 89%
    15:00 -11°C° 0.3 mm 4 m/S 747 mmHg 90%
    16:00 -11°C° 0.3 mm 4 m/S 746 mmHg 91%
    17:00 -11°C° 0.3 mm 4 m/S 746 mmHg 91%
    18:00 -10°C° 0.4 mm 3 m/S 746 mmHg 92%
    19:00 -10°C° 0.4 mm 3 m/S 746 mmHg 93%
    20:00 -10°C° 0.4 mm 3 m/S 746 mmHg 94%
    21:00 -9°C° 0.4 mm 2 m/S 746 mmHg 94%
    22:00 -9°C° 0.4 mm 2 m/S 746 mmHg 94%
    23:00 -9°C° 0.4 mm 2 m/S 746 mmHg 95%

    übermorgen, 26 Januar, Samstag

    Zeit Temperatur Niederschläge Wind Luftdruck Luftfeuchtigkeit
    00:00 -8°C° 0.1 mm 1 m/S 745 mmHg 95%
    01:00 -8°C° 0.1 mm 1 m/S 745 mmHg 95%
    02:00 -8°C° 0.1 mm 1 m/S 745 mmHg 95%
    03:00 -8°C° 0 mm 1 m/S 744 mmHg 95%
    04:00 -9°C° 0 mm 2 m/S 744 mmHg 95%
    05:00 -9°C° 0 mm 2 m/S 744 mmHg 95%
    06:00 -9°C° 0 mm 2 m/S 744 mmHg 95%
    07:00 -9°C° 0 mm 2 m/S 744 mmHg 95%
    08:00 -9°C° 0 mm 2 m/S 744 mmHg 94%
    09:00 -8°C° 0 mm 2 m/S 743 mmHg 93%
    10:00 -8°C° 0 mm 2 m/S 743 mmHg 92%
    11:00 -8°C° 0 mm 3 m/S 743 mmHg 90%
    12:00 -8°C° 0 mm 3 m/S 743 mmHg 89%
    13:00 -7°C° 0 mm 3 m/S 742 mmHg 89%
    14:00 -7°C° 0 mm 3 m/S 741 mmHg 88%
    15:00 -7°C° 0.3 mm 3 m/S 741 mmHg 90%
    16:00 -7°C° 0.3 mm 3 m/S 740 mmHg 93%
    17:00 -7°C° 0.3 mm 3 m/S 740 mmHg 95%
    18:00 -7°C° 0.5 mm 3 m/S 739 mmHg 95%
    19:00 -7°C° 0.5 mm 3 m/S 739 mmHg 94%
    20:00 -7°C° 0.5 mm 3 m/S 738 mmHg 94%
    21:00 -6°C° 0.2 mm 2 m/S 738 mmHg 95%
    22:00 -6°C° 0.2 mm 2 m/S 738 mmHg 96%
    23:00 -4°C° 0.2 mm 1 m/S 737 mmHg 96%

    27 Januar, Sonntag

    Zeit Temperatur Niederschläge Wind Luftdruck Luftfeuchtigkeit
    00:00 -4°C° 0 mm 1 m/S 738 mmHg 96%
    01:00 -6°C° 0 mm 1 m/S 738 mmHg 96%
    02:00 -6°C° 0 mm 1 m/S 738 mmHg 96%
    03:00 -7°C° 0 mm 1 m/S 738 mmHg 96%
    04:00 -8°C° 0 mm 1 m/S 738 mmHg 97%
    05:00 -10°C° 0 mm 2 m/S 739 mmHg 97%
    06:00 -10°C° 0 mm 2 m/S 739 mmHg 97%
    07:00 -9°C° 0 mm 1 m/S 739 mmHg 97%
    08:00 -10°C° 0 mm 1 m/S 740 mmHg 96%
    09:00 -9°C° 0 mm 1 m/S 740 mmHg 95%
    10:00 -9°C° 0 mm 2 m/S 740 mmHg 94%
    11:00 -8°C° 0 mm 2 m/S 740 mmHg 93%
    12:00 -7°C° 0 mm 2 m/S 740 mmHg 93%
    13:00 -6°C° 0 mm 2 m/S 740 mmHg 92%
    14:00 -6°C° 0 mm 2 m/S 739 mmHg 92%
    15:00 -7°C° 0.2 mm 3 m/S 739 mmHg 93%
    16:00 -6°C° 0.2 mm 3 m/S 739 mmHg 94%
    17:00 -6°C° 0.2 mm 3 m/S 739 mmHg 95%
    18:00 -7°C° 0.2 mm 4 m/S 738 mmHg 96%
    19:00 -5°C° 0.2 mm 4 m/S 738 mmHg 96%
    20:00 -5°C° 0.2 mm 4 m/S 738 mmHg 96%
    21:00 -4°C° 0.1 mm 4 m/S 738 mmHg 95%
    22:00 -3°C° 0.1 mm 4 m/S 738 mmHg 95%
    23:00 -3°C° 0.1 mm 4 m/S 738 mmHg 94%

    28 Januar, Montag

    Zeit Temperatur Niederschläge Wind Luftdruck Luftfeuchtigkeit
    00:00 -4°C° 0 mm 4 m/S 737 mmHg 94%
    01:00 -4°C° 0 mm 4 m/S 737 mmHg 94%
    02:00 -5°C° 0 mm 3 m/S 737 mmHg 94%
    03:00 -5°C° 0 mm 3 m/S 736 mmHg 94%
    04:00 -5°C° 0 mm 3 m/S 736 mmHg 94%
    05:00 -5°C° 0 mm 3 m/S 735 mmHg 93%
    06:00 -5°C° 0 mm 4 m/S 735 mmHg 93%
    07:00 -5°C° 0 mm 4 m/S 735 mmHg 92%
    08:00 -4°C° 0 mm 4 m/S 735 mmHg 92%
    09:00 -4°C° 0 mm 4 m/S 735 mmHg 91%
    10:00 -3°C° 0 mm 4 m/S 735 mmHg 91%
    11:00 -3°C° 0 mm 4 m/S 736 mmHg 90%
    12:00 -2°C° 0 mm 4 m/S 736 mmHg 91%
    13:00 -2°C° 0 mm 4 m/S 736 mmHg 91%
    14:00 -2°C° 0 mm 4 m/S 736 mmHg 91%
    15:00 -2°C° 0 mm 4 m/S 736 mmHg 91%
    16:00 -3°C° 0 mm 4 m/S 736 mmHg 92%
    17:00 -4°C° 0 mm 3 m/S 736 mmHg 92%
    18:00 -4°C° 0 mm 3 m/S 736 mmHg 92%
    19:00 -4°C° 0 mm 3 m/S 736 mmHg 92%
    20:00 -5°C° 0 mm 4 m/S 736 mmHg 92%
    21:00 -5°C° 0 mm 4 m/S 736 mmHg 92%
    22:00 -5°C° 0 mm 3 m/S 737 mmHg 92%
    23:00 -5°C° 0 mm 3 m/S 737 mmHg 92%

    29 Januar, Dienstag

    Zeit Temperatur Niederschläge Wind Luftdruck Luftfeuchtigkeit
    00:00 -5°C° 0 mm 3 m/S 737 mmHg 92%
    01:00 -6°C° 0 mm 3 m/S 737 mmHg 92%
    02:00 -6°C° 0 mm 3 m/S 737 mmHg 93%
    03:00 -6°C° 0 mm 3 m/S 737 mmHg 93%
    04:00 -6°C° 0 mm 3 m/S 737 mmHg 94%
    05:00 -5°C° 0 mm 2 m/S 737 mmHg 94%
    06:00 -5°C° 0 mm 2 m/S 737 mmHg 95%
    07:00 -5°C° 0 mm 2 m/S 737 mmHg 95%
    08:00 -5°C° 0 mm 2 m/S 737 mmHg 95%
    09:00 -2°C° 0.2 mm 1 m/S 737 mmHg 95%
    10:00 -1°C° 0.2 mm 1 m/S 738 mmHg 95%
    11:00 0°C° 0.2 mm 1 m/S 738 mmHg 95%
    12:00 0°C° 0.3 mm 1 m/S 738 mmHg 96%
    13:00 +1°C° 0.3 mm 1 m/S 738 mmHg 97%
    14:00 +1°C° 0.3 mm 1 m/S 738 mmHg 98%
    15:00 +1°C° 0.1 mm 1 m/S 738 mmHg 97%
    16:00 0°C° 0.1 mm 1 m/S 738 mmHg 97%
    17:00 0°C° 0.1 mm 1 m/S 738 mmHg 97%
    18:00 0°C° 0 mm 1 m/S 738 mmHg 97%
    19:00 -1°C° 0 mm 1 m/S 738 mmHg 97%
    20:00 -1°C° 0 mm 1 m/S 739 mmHg 97%
    21:00 -1°C° 0 mm 1 m/S 739 mmHg 97%
    22:00 -1°C° 0 mm 1 m/S 739 mmHg 97%
    23:00 -2°C° 0 mm 0 m/S 739 mmHg 97%
    Mehr zeigen